Hourly Weather Goias

Today, 12 May, Wednesday

Time Temperature Precipitation Wind Pressure Humidity
00:00 +19°C° 0 mm 1 mps 709 mmHg 68%
01:00 +19°C° 0 mm 1 mps 709 mmHg 70%
02:00 +18°C° 0 mm 1 mps 708 mmHg 72%
03:00 +18°C° 0 mm 1 mps 708 mmHg 74%
04:00 +18°C° 0 mm 1 mps 708 mmHg 75%
05:00 +18°C° 0 mm 1 mps 709 mmHg 76%
06:00 +16°C° 0 mm 1 mps 709 mmHg 77%
07:00 +20°C° 0 mm 1 mps 710 mmHg 70%
08:00 +22°C° 0 mm 1 mps 710 mmHg 63%
09:00 +24°C° 0 mm 1 mps 711 mmHg 57%
10:00 +26°C° 0 mm 1 mps 711 mmHg 52%
11:00 +28°C° 0 mm 2 mps 711 mmHg 47%
12:00 +30°C° 0 mm 2 mps 711 mmHg 42%
13:00 +30°C° 0 mm 2 mps 710 mmHg 41%
14:00 +30°C° 0 mm 2 mps 709 mmHg 40%
15:00 +31°C° 0 mm 2 mps 709 mmHg 39%
16:00 +29°C° 0 mm 2 mps 709 mmHg 44%
17:00 +27°C° 0 mm 1 mps 708 mmHg 49%
18:00 +23°C° 0 mm 0 mps 708 mmHg 54%
19:00 +25°C° 0 mm 1 mps 709 mmHg 54%
20:00 +24°C° 0 mm 1 mps 709 mmHg 55%
21:00 +24°C° 0 mm 1 mps 710 mmHg 55%
22:00 +23°C° 0 mm 1 mps 709 mmHg 58%
23:00 +22°C° 0 mm 1 mps 709 mmHg 62%

Tomorrow, 13 May, Thursday

Time Temperature Precipitation Wind Pressure Humidity
00:00 +21°C° 0 mm 1 mps 709 mmHg 66%
01:00 +20°C° 0 mm 1 mps 709 mmHg 67%
02:00 +20°C° 0 mm 1 mps 708 mmHg 69%
03:00 +19°C° 0 mm 1 mps 708 mmHg 70%
04:00 +19°C° 0 mm 1 mps 708 mmHg 71%
05:00 +19°C° 0 mm 1 mps 708 mmHg 72%
06:00 +18°C° 0 mm 1 mps 709 mmHg 72%
07:00 +21°C° 0 mm 1 mps 709 mmHg 66%
08:00 +23°C° 0 mm 1 mps 710 mmHg 59%
09:00 +25°C° 0 mm 1 mps 711 mmHg 52%
10:00 +27°C° 0 mm 1 mps 711 mmHg 47%
11:00 +29°C° 0 mm 1 mps 711 mmHg 42%
12:00 +29°C° 0 mm 0 mps 711 mmHg 38%
13:00 +31°C° 0 mm 1 mps 710 mmHg 36%
14:00 +32°C° 0 mm 1 mps 709 mmHg 35%
15:00 +32°C° 0 mm 1 mps 709 mmHg 33%
16:00 +29°C° 0 mm 1 mps 708 mmHg 39%
17:00 +27°C° 0 mm 1 mps 708 mmHg 44%
18:00 +25°C° 0 mm 1 mps 708 mmHg 50%
19:00 +24°C° 0 mm 1 mps 709 mmHg 52%
20:00 +23°C° 0 mm 1 mps 709 mmHg 54%
21:00 +22°C° 0 mm 1 mps 709 mmHg 56%
22:00 +22°C° 0 mm 1 mps 709 mmHg 59%
23:00 +21°C° 0 mm 1 mps 709 mmHg 61%

Day after tomorrow, 14 May, Friday

Time Temperature Precipitation Wind Pressure Humidity
00:00 +21°C° 0 mm 1 mps 709 mmHg 64%
01:00 +20°C° 0 mm 1 mps 709 mmHg 65%
02:00 +20°C° 0 mm 1 mps 708 mmHg 66%
03:00 +19°C° 0 mm 1 mps 708 mmHg 68%
04:00 +19°C° 0 mm 1 mps 708 mmHg 68%
05:00 +19°C° 0 mm 1 mps 709 mmHg 68%
06:00 +19°C° 0 mm 1 mps 709 mmHg 68%
07:00 +21°C° 0 mm 1 mps 709 mmHg 62%
08:00 +23°C° 0 mm 1 mps 710 mmHg 56%
09:00 +26°C° 0 mm 1 mps 711 mmHg 50%
10:00 +28°C° 0 mm 1 mps 711 mmHg 44%
11:00 +30°C° 0 mm 1 mps 710 mmHg 39%
12:00 +32°C° 0 mm 2 mps 710 mmHg 34%
13:00 +32°C° 0 mm 1 mps 710 mmHg 33%
14:00 +32°C° 0 mm 1 mps 709 mmHg 32%
15:00 +32°C° 0 mm 1 mps 708 mmHg 31%
16:00 +30°C° 0 mm 1 mps 708 mmHg 37%
17:00 +28°C° 0 mm 1 mps 708 mmHg 44%
18:00 +26°C° 0 mm 1 mps 708 mmHg 50%
19:00 +25°C° 0 mm 1 mps 708 mmHg 51%
20:00 +24°C° 0 mm 1 mps 708 mmHg 53%
21:00 +24°C° 0 mm 1 mps 709 mmHg 54%
22:00 +23°C° 0 mm 1 mps 709 mmHg 56%
23:00 +23°C° 0 mm 1 mps 709 mmHg 57%

15 May, Saturday

Time Temperature Precipitation Wind Pressure Humidity
00:00 +22°C° 0 mm 1 mps 709 mmHg 58%
01:00 +22°C° 0 mm 1 mps 708 mmHg 58%
02:00 +22°C° 0 mm 1 mps 708 mmHg 59%
03:00 +21°C° 0 mm 1 mps 708 mmHg 59%
04:00 +21°C° 0 mm 1 mps 708 mmHg 60%
05:00 +21°C° 0 mm 1 mps 708 mmHg 60%
06:00 +20°C° 0 mm 1 mps 708 mmHg 61%
07:00 +22°C° 0 mm 1 mps 709 mmHg 57%
08:00 +24°C° 0 mm 1 mps 710 mmHg 52%
09:00 +26°C° 0 mm 2 mps 710 mmHg 48%
10:00 +28°C° 0 mm 2 mps 710 mmHg 42%
11:00 +30°C° 0 mm 3 mps 710 mmHg 37%
12:00 +33°C° 0 mm 3 mps 710 mmHg 32%
13:00 +33°C° 0 mm 3 mps 709 mmHg 32%
14:00 +32°C° 0 mm 2 mps 709 mmHg 32%
15:00 +32°C° 0 mm 2 mps 708 mmHg 31%
16:00 +30°C° 0 mm 1 mps 708 mmHg 37%
17:00 +28°C° 0 mm 1 mps 708 mmHg 43%
18:00 +26°C° 0 mm 1 mps 708 mmHg 49%
19:00 +26°C° 0 mm 1 mps 708 mmHg 50%
20:00 +25°C° 0 mm 1 mps 709 mmHg 52%
21:00 +24°C° 0 mm 1 mps 709 mmHg 53%
22:00 +23°C° 0 mm 1 mps 709 mmHg 55%
23:00 +23°C° 0 mm 1 mps 709 mmHg 57%

16 May, Sunday

Time Temperature Precipitation Wind Pressure Humidity
00:00 +22°C° 0 mm 1 mps 709 mmHg 58%
01:00 +22°C° 0 mm 1 mps 708 mmHg 60%
02:00 +21°C° 0 mm 1 mps 708 mmHg 61%
03:00 +21°C° 0 mm 1 mps 708 mmHg 62%
04:00 +21°C° 0 mm 1 mps 708 mmHg 63%
05:00 +20°C° 0 mm 1 mps 708 mmHg 63%
06:00 +20°C° 0 mm 1 mps 709 mmHg 64%
07:00 +22°C° 0 mm 1 mps 709 mmHg 59%
08:00 +24°C° 0 mm 1 mps 710 mmHg 54%
09:00 +24°C° 0 mm 0 mps 710 mmHg 49%
10:00 +28°C° 0 mm 1 mps 710 mmHg 45%
11:00 +30°C° 0 mm 1 mps 710 mmHg 40%
12:00 +32°C° 0 mm 1 mps 710 mmHg 35%
13:00 +32°C° 0 mm 2 mps 710 mmHg 34%
14:00 +32°C° 0 mm 2 mps 709 mmHg 34%
15:00 +32°C° 0 mm 2 mps 708 mmHg 33%
16:00 +31°C° 0 mm 1 mps 708 mmHg 38%
17:00 +29°C° 0 mm 1 mps 708 mmHg 44%
18:00 +27°C° 0 mm 1 mps 708 mmHg 49%
19:00 +26°C° 0 mm 1 mps 709 mmHg 51%
20:00 +25°C° 0 mm 1 mps 709 mmHg 52%
21:00 +23°C° 0 mm 0 mps 709 mmHg 54%
22:00 +22°C° 0 mm 0 mps 709 mmHg 55%
23:00 +22°C° 0 mm 0 mps 709 mmHg 56%

17 May, Monday

Time Temperature Precipitation Wind Pressure Humidity
00:00 +24°C° 0 mm 1 mps 709 mmHg 57%
01:00 +23°C° 0 mm 1 mps 709 mmHg 57%
02:00 +23°C° 0 mm 1 mps 709 mmHg 58%
03:00 +23°C° 0 mm 1 mps 708 mmHg 59%
04:00 +23°C° 0 mm 1 mps 709 mmHg 60%
05:00 +20°C° 0 mm 0 mps 709 mmHg 61%
06:00 +20°C° 0 mm 0 mps 709 mmHg 61%
07:00 +22°C° 0 mm 0 mps 709 mmHg 58%
08:00 +23°C° 0 mm 0 mps 710 mmHg 55%
09:00 +25°C° 0 mm 0 mps 711 mmHg 52%
10:00 +27°C° 0 mm 0 mps 711 mmHg 47%
11:00 +31°C° 0 mm 1 mps 711 mmHg 42%
12:00 +33°C° 0 mm 1 mps 710 mmHg 37%
13:00 +32°C° 0 mm 1 mps 710 mmHg 37%
14:00 +32°C° 0 mm 2 mps 709 mmHg 36%
15:00 +32°C° 0 mm 2 mps 708 mmHg 36%
16:00 +30°C° 0 mm 2 mps 708 mmHg 43%
17:00 +28°C° 0 mm 1 mps 708 mmHg 49%
18:00 +26°C° 0 mm 1 mps 708 mmHg 56%
19:00 +25°C° 0 mm 1 mps 708 mmHg 60%
20:00 +24°C° 0 mm 1 mps 709 mmHg 64%
21:00 +23°C° 0 mm 1 mps 709 mmHg 68%
22:00 +23°C° 0 mm 1 mps 709 mmHg 71%
23:00 +22°C° 0 mm 1 mps 709 mmHg 74%
Show more